Driggs, ID

9:47 AM MST on February 27, 2017 (GMT -0700)
Driggs

Weather History for KDIJ - October, 2011

Change the Weather History Date:

Tuesday, October 18, 2011

  Actual Average (KJAC) Record (KJAC)
Temperature  
Mean Temperature 39 °F -  
Max Temperature 54 °F 54 °F 71 °F (1974)
Min Temperature 24 °F 20 °F 9 °F (1966)
Degree Days  
Heating Degree Days 26    
Moisture  
Dew Point 28 °F    
Average Humidity 67    
Maximum Humidity 92    
Minimum Humidity 35    
Precipitation  
Precipitation 0.00 in - - ()
Sea Level Pressure  
Sea Level Pressure 30.38 in    
Wind  
Wind Speed 3 mph (WNW)    
Max Wind Speed 8 mph    
Max Gust Speed -    
Visibility 7 miles    
Events      
Averages and records for this station are not official NWS values.
T = Trace of Precipitation, MM = Missing Value Source: NWS Daily Summary

Daily Weather History Graph

Daily Weather History Graph

Search for Another Location

Airport or City:

Trip Planner

Search our weather history database for the weather conditions in past years. The results will help you decide how hot, cold, wet, or windy it might be!

Date:

Astronomy

Oct. 18, 2011 Rise Set
Actual Time 7:42 AM MDT 6:36 PM MDT
Civil Twilight 7:13 AM MDT 7:05 PM MDT
Nautical Twilight 6:39 AM MDT 7:38 PM MDT
Astronomical Twilight 6:06 AM MDT 8:11 PM MDT
Moon 11:14 PM MDT (10/18) 1:42 PM MDT (10/18)
Length of Visible Light 11h 52m
Length of Day
10h 54m
Waning Gibbous, 64% of the Moon is Illuminated
Oct 18
Waning Gibbous
Oct 19
Last Quarter
Oct 26
New
Nov 2
First Quarter
Nov 10
Full

Hourly Weather History & Observations

Time (MDT) Temp. Windchill Dew Point Humidity Pressure Visibility Wind Dir Wind Speed Gust Speed Precip Events Conditions
12:56 AM 30.0 °F - 27.1 °F 89% 30.39 in 10.0 mi Calm Calm - N/A   Clear
1:56 AM 28.0 °F 21.7 °F 25.2 °F 89% 30.39 in 10.0 mi East 5.8 mph - N/A   Clear
2:56 AM 28.0 °F 22.8 °F 26.1 °F 92% 30.39 in 10.0 mi SE 4.6 mph - N/A   Clear
3:56 AM 27.1 °F - 25.2 °F 92% 30.40 in 10.0 mi Calm Calm - N/A   Clear
4:56 AM 24.1 °F 19.7 °F 21.0 °F 88% 30.41 in 10.0 mi ESE 3.5 mph - N/A   Clear
5:56 AM 27.1 °F - 25.2 °F 92% 30.43 in 10.0 mi Calm Calm - N/A   Clear
6:56 AM 26.1 °F 20.5 °F 23.0 °F 88% 30.46 in 10.0 mi ESE 4.6 mph - N/A   Clear
7:56 AM 25.2 °F 16.5 °F 22.1 °F 88% 30.45 in 10.0 mi East 8.1 mph - N/A   Clear
9:56 AM 39.9 °F - 31.1 °F 71% 30.41 in 10.0 mi Calm Calm - N/A   Clear
10:56 AM 43.0 °F 40.3 °F 30.0 °F 60% 30.40 in 10.0 mi WSW 4.6 mph - N/A   Clear
11:56 AM 45.9 °F - 27.1 °F 48% 30.41 in 10.0 mi Calm Calm - N/A   Clear
12:56 PM 48.9 °F - 27.1 °F 43% 30.39 in 10.0 mi Calm Calm - N/A   Clear
1:56 PM 52.0 °F - 25.2 °F 35% 30.37 in 10.0 mi WNW 5.8 mph - N/A   Clear
2:56 PM 50.9 °F - 26.1 °F 38% 30.35 in 10.0 mi Variable 3.5 mph - N/A   Clear
3:56 PM 52.9 °F - 27.1 °F 37% 30.34 in 10.0 mi Calm Calm - N/A   Clear
4:48 PM 53.6 °F - 28.4 °F 38% 30.39 in 3.0 mi Calm Calm - N/A   Haze
4:56 PM 54.0 °F - 29.1 °F 39% 30.33 in 10.0 mi Calm Calm - N/A   Clear
5:07 PM 53.6 °F - 30.2 °F 41% 30.38 in 1.5 mi NW 4.6 mph - N/A   Haze
5:29 PM 51.8 °F - 30.2 °F 44% 30.38 in 0.2 mi WNW 3.5 mph - N/A   Haze
5:56 PM 50.9 °F - 32.0 °F 48% 30.31 in 0.2 mi WNW 5.8 mph - N/A   Haze
6:10 PM 50.0 °F - 33.8 °F 54% 30.37 in 0.8 mi WNW 4.6 mph - N/A   Haze
6:20 PM 48.2 °F - 33.8 °F 58% 30.37 in 1.0 mi NW 4.6 mph - N/A   Haze
6:27 PM 48.2 °F - 33.8 °F 58% 30.37 in 1.5 mi NW 5.8 mph - N/A   Haze
6:43 PM 44.6 °F 41.4 °F 32.0 °F 61% 30.37 in 3.0 mi NNW 5.8 mph - N/A   Haze
6:56 PM 41.9 °F 37.5 °F 32.0 °F 68% 30.35 in 10.0 mi NE 6.9 mph - N/A   Clear
7:56 PM 36.0 °F 32.1 °F 30.0 °F 79% 30.38 in 10.0 mi SSE 4.6 mph - N/A   Clear
8:56 PM 36.0 °F 32.1 °F 31.1 °F 82% 30.35 in 1.5 mi SSW 4.6 mph - N/A   Haze
9:03 PM 35.6 °F 32.8 °F 30.2 °F 81% 30.37 in 1.2 mi SW 3.5 mph - N/A   Haze
9:13 PM 35.6 °F - 30.2 °F 81% 30.36 in 2.0 mi Calm Calm - N/A   Haze
9:22 PM 33.8 °F - 28.4 °F 81% 30.36 in 9.0 mi Calm Calm - N/A   Clear
10:56 PM 29.1 °F 24.1 °F 27.1 °F 92% 30.31 in 10.0 mi SSE 4.6 mph - N/A   Clear
11:56 PM 31.1 °F - 27.1 °F 85% 30.26 in 10.0 mi Calm Calm - N/A   Clear